Theta_e
282 283 282 281 280 281 280 281 277 281 281 286 289 291 295 297 297 297 298 300 302 301 303 305 305 306 307 308 305 302 298 294 292 292 292 291 291 291 291 291 291 288 287 288
278 281 281 279 281 282 282 283 283 283 284 290 292 292 294 294 295 296 298 300 299 300 300 300 302 304 305 304 299 297 295 293 292 292 290 289 289 288 288 288 288 288 287 288
274 280 280 276 281 283 284 286 284 280 286 290 288 289 290 291 295 298 299 299 299 300 301 301 303 305 304 303 295 293 292 291 290 288 288 287 286 286 286 287 288 288 288 288
275 278 270 282 287 286 284 286 287 286 287 287 288 288 290 296 296 297 298 299 300 302 303 303 304 305 306 298 294 293 291 289 287 286 286 286 286 287 288 288 289 288 289 291
275 274 278 281 284 283 281 281 287 284 287 288 289 289 291 298 300 299 300 301 301 303 304 303 303 306 297 294 294 289 287 287 286 286 286 286 287 289 289 289 290 291 291 291
277 272 270 280 284 287 286 277 286 285 285 285 287 281 291 298 300 300 301 301 301 301 302 303 304 305 299 294 289 287 285 287 287 286 287 287 289 289 291 291 291 292 292 292
276 274 278 284 286 287 275 278 284 285 286 285 284 288 296 300 299 300 300 301 302 302 301 303 304 304 301 296 292 290 287 286 286 288 289 290 290 291 291 291 291 290 289 289
276 273 270 287 286 278 283 285 286 287 287 287 289 295 297 298 298 298 298 299 300 300 301 302 303 303 301 299 297 293 289 286 286 286 290 292 291 292 292 291 290 288 288 288
278 277 285 288 288 288 288 286 287 287 289 292 292 294 297 297 297 298 299 300 300 300 300 302 303 303 300 300 297 295 289 287 286 286 289 291 291 293 291 289 287 286 287 286
280 283 286 287 287 288 290 289 290 291 292 292 292 294 296 297 298 298 299 299 300 300 300 300 303 303 301 299 298 294 292 287 287 286 287 289 291 293 291 289 288 287 286 285
282 284 285 285 288 289 290 292 291 293 292 292 292 293 294 295 297 299 299 300 300 299 300 300 302 303 300 298 297 293 290 288 286 286 286 285 287 289 290 291 291 291 289 288
280 284 285 285 288 289 289 290 291 291 292 292 292 291 293 294 297 297 298 301 300 299 299 300 302 302 299 296 294 290 288 287 286 285 285 285 286 287 287 287 287 288 288 288
285 288 288 289 290 291 291 290 291 292 292 290 291 290 293 293 295 294 298 300 301 301 302 302 302 302 298 294 293 290 288 287 285 285 285 285 285 285 284 285 286 286 287 287
290 290 288 290 289 291 290 290 291 292 291 290 291 291 290 290 292 292 294 296 299 301 301 301 301 300 298 292 291 290 288 285 285 286 286 286 287 287 287 285 284 284 286 287
290 289 290 291 291 289 290 290 289 289 290 290 290 289 289 289 291 290 291 294 297 297 296 295 296 297 295 291 288 287 286 286 286 286 286 287 288 287 286 286 285 284 285 285
288 290 289 287 287 287 287 288 287 287 288 288 289 289 289 290 290 291 290 290 290 289 290 288 288 289 291 289 287 286 285 285 285 286 285 286 287 286 286 286 285 285 285 285
285 284 285 285 285 286 286 287 288 288 288 288 288 290 289 288 290 289 289 289 287 286 286 287 285 286 286 287 286 286 286 286 286 287 287 287 287 287 287 286 285 284 284 285
288 288 288 287 286 286 286 287 287 288 288 288 288 287 285 285 286 287 287 287 287 286 286 286 285 285 285 285 286 286 286 287 287 288 288 288 288 289 287 285 284 284 285 285
288 287 287 287 288 287 288 288 288 288 289 288 286 284 285 286 286 286 287 286 286 285 285 285 284 285 285 285 286 287 287 287 287 288 288 287 287 287 286 285 285 285 284 283
288 288 288 289 290 289 288 289 288 287 286 285 285 284 284 285 285 286 286 286 286 286 286 285 286 286 285 285 285 287 287 287 287 287 287 287 287 286 286 286 287 284 284 283
289 289 289 288 287 287 287 286 285 285 285 286 285 284 284 285 286 286 285 286 288 286 287 285 287 287 287 286 286 286 286 286 286 286 286 286 286 286 286 287 286 285 284 284
287 286 286 285 285 285 286 287 286 285 285 285 285 285 284 284 285 286 287 287 289 285 286 287 285 286 287 285 287 286 286 286 286 286 286 286 286 285 285 286 286 285 285 284
286 285 285 284 284 284 286 287 286 286 286 285 284 284 284 284 285 285 285 289 289 288 286 287 286 285 285 286 288 286 286 286 286 286 286 286 286 286 286 286 286 286 285 286
284 284 284 284 285 285 284 285 285 285 286 286 286 286 285 284 285 287 288 287 286 285 286 286 285 284 284 286 287 286 287 286 286 286 286 286 286 286 286 286 286 286 286 286
282 283 283 283 283 284 284 283 283 284 285 285 285 287 287 286 285 286 287 288 286 286 287 286 284 284 285 286 286 286 286 286 286 286 286 286 286 286 286 286 286 286 286 285
282 282 283 283 283 283 283 283 281 282 283 283 284 286 287 287 287 287 287 286 288 286 287 286 285 285 285 286 286 286 286 286 286 287 287 287 286 286 286 286 286 285 285 286
281 281 281 281 282 282 281 280 280 279 280 281 281 283 284 285 286 286 285 285 285 286 286 286 286 285 286 286 286 286 286 286 286 287 286 286 286 286 286 286 286 286 286 286
Wind_Speed
19 19 19 21 23 23 25 24 25 21 29 25 23 25 24 23 24 18 23 19 16 20 19 15 16 14 8 2 3 8 10 11 13 13 13 14 15 15 15 16 13 16 12 10
16 17 20 23 21 25 25 25 24 18 22 19 21 24 25 27 25 22 19 11 12 14 15 16 11 4 1 5 5 6 9 10 11 13 14 14 14 14 14 14 14 15 13 13
18 17 19 18 19 21 16 16 16 16 23 22 24 23 24 25 22 20 9 8 8 9 9 10 12 10 7 5 6 6 7 10 12 13 13 14 14 13 13 13 14 14 14 13
15 17 21 20 13 4 13 14 16 19 18 21 22 21 24 13 6 7 9 9 10 10 10 10 13 12 4 8 8 8 9 11 11 13 12 13 13 13 13 13 14 14 14 14
14 17 20 22 9 5 13 19 11 14 20 23 25 22 12 10 14 12 13 6 6 6 7 9 11 10 10 5 5 5 5 7 10 12 15 15 15 15 15 15 15 15 15 15
15 17 18 16 7 4 15 17 15 19 20 22 20 12 6 11 9 9 10 8 8 11 5 8 9 5 5 7 6 5 6 6 7 11 14 16 16 16 14 14 14 12 14 14
14 14 12 19 12 12 8 9 24 21 22 21 15 12 19 16 12 9 11 10 4 8 10 7 8 6 2 6 7 8 7 7 8 8 12 14 15 14 15 15 13 12 12 12
13 16 22 12 13 6 8 17 21 20 19 18 18 22 17 16 15 16 9 10 14 9 8 8 4 6 6 4 7 10 12 9 9 8 8 12 16 15 15 15 15 13 13 11
11 7 20 13 4 10 14 15 15 16 18 13 17 19 19 17 16 17 19 13 9 11 10 9 6 4 3 5 11 11 11 11 9 9 10 12 14 16 13 14 12 12 11 10
16 17 13 18 19 15 13 14 19 15 17 17 15 18 19 18 17 16 16 15 13 11 11 7 7 5 5 4 8 10 11 12 11 10 11 11 9 11 12 13 13 12 12 11
15 15 16 15 11 14 18 19 17 16 16 16 16 17 17 17 17 17 15 14 13 11 10 10 6 4 6 6 6 9 10 11 11 10 11 10 8 7 10 11 10 12 11 12
10 13 11 17 17 20 16 15 13 14 15 15 16 16 17 15 15 16 17 17 13 13 11 11 7 4 7 5 9 9 9 9 9 10 10 8 8 8 8 8 12 12 14 11
11 12 10 14 19 16 12 12 12 12 11 14 15 15 18 17 15 17 17 18 15 14 13 12 10 6 8 6 8 11 11 9 8 9 9 10 10 10 10 9 10 12 15 18
13 14 13 6 5 10 11 11 12 12 9 11 14 15 16 14 16 16 16 15 20 15 13 14 14 8 11 10 9 9 10 12 9 7 8 9 10 10 10 10 10 9 12 15
9 5 4 4 7 9 10 11 11 11 13 13 12 12 15 17 17 15 16 15 14 13 12 13 14 14 11 12 10 11 9 8 8 7 6 8 8 9 10 10 10 10 10 11
9 6 3 6 7 8 9 10 11 12 13 14 15 13 14 15 15 14 13 13 12 8 10 9 9 10 6 11 10 8 8 11 9 8 7 8 8 9 10 10 11 11 10 11
5 5 7 7 8 9 10 10 10 10 12 14 16 16 14 14 15 15 16 13 11 6 7 7 7 4 2 8 10 6 6 9 11 9 9 9 9 9 10 10 10 10 10 11
4 5 5 6 8 9 10 11 10 12 12 13 15 14 13 12 11 14 13 15 11 7 5 5 4 2 3 5 6 6 7 8 9 10 9 9 9 10 10 10 10 10 10 12
3 5 7 8 9 9 10 10 13 13 11 11 11 13 11 11 12 12 12 12 9 10 7 4 2 3 4 6 6 4 5 8 9 8 9 10 9 9 9 10 10 10 10 11
5 5 7 9 9 11 12 12 12 12 10 11 11 11 13 13 13 12 11 10 4 5 10 4 1 2 4 5 6 4 5 6 8 8 8 9 8 9 9 12 11 11 10 11
8 7 7 9 9 9 5 6 8 7 9 9 10 11 12 14 11 11 10 9 7 7 10 6 3 2 3 4 4 4 4 4 5 7 8 8 9 9 9 9 10 11 11 10
7 6 3 4 6 7 5 6 8 9 9 8 10 10 11 13 13 11 8 6 7 7 7 4 3 4 3 5 4 4 4 5 5 6 6 7 9 9 9 9 9 10 10 9
7 7 7 5 7 9 8 7 4 7 6 6 10 9 9 8 9 10 9 9 8 8 7 4 4 4 7 6 6 6 6 6 6 7 7 7 8 8 9 9 9 10 9 9
8 8 8 8 9 10 9 10 11 12 4 7 6 4 6 7 8 7 9 11 13 9 8 5 5 5 6 4 4 5 5 6 6 6 7 8 7 8 8 8 9 8 9 10
8 9 8 8 9 7 9 8 11 10 12 10 11 12 10 8 8 9 8 9 10 9 8 6 5 5 5 3 4 5 5 5 6 6 7 7 7 8 8 9 9 9 9 10
10 8 8 10 9 7 6 7 7 9 10 10 10 9 9 9 9 8 8 11 10 10 8 6 4 4 5 4 5 5 6 6 7 7 8 8 9 9 8 9 9 11 11 9
8 7 8 9 7 7 7 9 10 10 10 9 11 10 11 10 10 10 10 8 9 8 7 6 5 5 5 5 5 6 5 6 8 7 7 8 9 9 10 10 10 10 9 9
Wind_Direction
271 283 286 282 282 281 273 273 269 278 276 292 321 311 300 304 315 327 287 302 358 338 326 353 13 344 299 298 162 200 193 177 172 167 162 156 149 144 141 143 131 112 105 107
273 277 275 274 278 279 281 272 269 290 297 291 328 314 315 315 304 304 306 8 353 7 346 344 345 333 289 220 212 208 184 171 160 157 153 150 145 138 135 124 124 119 128 131
267 283 287 273 267 274 300 313 310 301 314 341 320 316 315 303 300 296 335 1 351 314 330 317 323 307 290 183 145 159 149 146 147 142 147 141 134 135 134 134 136 134 142 149
256 271 266 269 277 286 295 294 308 333 332 326 320 314 301 266 306 358 350 359 341 355 346 325 313 332 80 139 164 171 163 147 144 139 136 134 133 139 138 137 140 143 151 165
257 258 272 288 323 4 317 304 44 342 327 327 325 319 296 6 345 338 326 327 296 332 324 335 342 10 103 124 143 111 105 148 149 153 146 142 141 143 143 144 150 153 164 159
252 272 272 288 317 321 303 295 8 339 325 318 317 307 328 323 311 310 299 315 338 328 350 9 351 34 123 134 146 171 141 135 141 151 151 147 145 146 142 147 154 154 155 149
252 259 280 302 14 318 281 324 332 322 308 308 308 291 297 323 335 315 304 293 297 323 335 40 348 340 139 156 169 164 144 131 132 152 154 148 141 143 161 153 143 143 141 140
273 273 270 358 338 359 334 307 303 300 295 297 293 299 321 323 322 314 315 316 322 323 327 352 50 329 355 118 149 140 144 134 134 146 159 153 153 157 151 148 141 146 135 138
285 281 297 317 3 302 320 297 303 297 298 295 311 320 325 331 322 308 309 307 310 332 347 324 7 353 358 77 141 145 144 145 143 148 158 160 159 157 141 135 145 145 146 139
274 281 305 317 317 326 305 293 297 301 318 321 319 320 328 333 329 319 305 312 322 317 318 320 339 81 18 120 143 150 152 148 144 143 154 158 161 156 141 151 154 158 153 150
271 278 296 299 287 303 303 299 311 316 325 331 336 330 331 323 330 325 318 308 309 317 321 324 331 333 100 150 165 161 155 145 154 154 156 146 147 161 157 162 161 159 158 155
278 292 285 283 295 291 308 300 315 329 332 343 337 332 327 327 330 332 324 307 309 318 325 320 311 292 123 164 163 164 159 155 154 158 155 155 146 137 77 115 103 121 137 149
273 285 288 281 283 305 289 311 320 325 327 334 335 336 331 335 333 320 321 321 330 331 321 320 320 279 129 160 166 169 170 156 154 159 157 154 149 145 128 101 120 126 128 143
337 307 281 306 300 323 315 327 323 331 352 340 330 339 339 334 333 337 329 321 316 326 326 328 315 295 140 152 171 169 163 153 156 159 159 156 158 151 146 145 138 138 132 140
284 313 344 290 322 330 331 331 330 336 341 339 343 341 339 339 337 339 330 326 322 330 337 333 332 331 159 152 168 159 151 156 156 146 144 146 146 143 143 148 141 138 143 141
316 324 336 338 336 341 337 341 341 342 342 340 339 346 334 335 336 339 339 338 327 323 323 320 305 310 154 148 152 154 148 146 144 145 139 137 142 141 144 149 147 151 157 155
330 353 350 349 349 339 338 335 334 337 334 342 336 340 331 331 333 341 337 334 318 300 308 310 307 316 115 142 145 147 147 147 149 148 151 147 146 152 154 151 150 155 162 164
3 4 356 347 335 338 339 340 339 336 338 338 338 332 333 330 325 329 332 328 326 308 314 327 327 50 98 121 129 137 147 149 154 155 150 153 157 157 151 146 152 160 159 158
337 341 344 338 338 332 331 341 354 337 353 344 335 331 322 327 330 321 327 328 334 336 348 339 0 79 97 109 106 118 138 151 151 152 152 145 151 148 146 153 161 159 152 156
316 321 321 325 339 352 340 349 347 346 334 331 322 326 330 329 330 326 325 322 338 329 320 296 232 132 116 124 124 128 139 153 158 149 151 153 153 156 157 168 163 150 154 166
314 321 346 347 330 327 321 332 329 328 322 325 330 326 326 326 323 328 327 326 354 350 331 309 249 182 164 145 138 135 138 149 154 155 157 158 153 159 163 165 160 156 159 171
326 326 323 309 312 308 311 296 319 322 324 324 325 326 329 329 329 331 315 305 326 358 331 325 292 207 181 165 159 150 152 158 154 156 161 161 161 163 165 165 159 158 158 168
308 321 322 340 306 319 295 282 296 298 289 325 318 323 326 324 324 324 327 339 331 334 324 308 295 269 181 197 178 169 175 172 170 172 170 166 167 165 165 165 161 164 165 171
321 323 315 312 310 304 313 352 323 312 306 295 296 286 321 324 322 326 327 325 318 327 306 294 289 248 203 223 173 174 177 171 171 168 164 165 164 163 166 166 165 168 171 177
304 295 299 301 307 315 318 337 314 315 310 334 325 318 338 324 313 317 319 317 315 311 309 302 282 254 218 226 187 186 181 179 174 168 167 170 167 171 169 171 171 172 173 182
312 312 315 311 309 312 326 303 319 316 323 318 320 325 329 319 314 315 318 318 315 316 300 301 252 234 228 217 197 191 181 178 175 179 170 173 177 179 175 176 172 180 181 179
310 309 314 309 314 321 323 337 313 314 311 309 304 312 312 311 312 312 315 313 311 310 301 286 267 234 231 225 211 198 186 181 175 180 177 178 180 181 180 180 179 180 175 171